Weather History for KMLP - November, 2013

Change the Weather History Date:

Friday, November 22, 2013

  Actual Average (K3TH) Record (K3TH)
Temperature  
Mean Temperature 20 °F -  
Max Temperature 26 °F 37 °F 45 °F (1997)
Min Temperature 14 °F 30 °F 27 °F (1996)
Degree Days  
Heating Degree Days 45    
Moisture  
Dew Point 2 °F    
Average Humidity 45    
Maximum Humidity 58    
Minimum Humidity 28    
Precipitation  
Precipitation 0.00 in - - ()
Sea Level Pressure  
Sea Level Pressure 30.69 in    
Wind  
Wind Speed 3 mph (SSW)    
Max Wind Speed 8 mph    
Max Gust Speed -    
Visibility 10 miles    
Events      
Averages and records for this station are not official NWS values.
T = Trace of Precipitation, MM = Missing Value Source: NWS Daily Summary

Daily Weather History Graph

Daily Weather History Graph

Search for Another Location

Airport or City:

Trip Planner

Search our weather history database for the weather conditions in past years. The results will help you decide how hot, cold, wet, or windy it might be!

Date:

Astronomy

Nov. 22, 2013 Rise Set
Actual Time 6:57 AM PST 3:59 PM PST
Civil Twilight 6:23 AM PST 4:33 PM PST
Nautical Twilight 5:45 AM PST 5:11 PM PST
Astronomical Twilight 5:09 AM PST 5:48 PM PST
Moon 8:41 PM PST (11/22) 10:39 AM PST (11/22)
Length of Visible Light 10h 10m
Length of Day
9h 01m
Waning Gibbous, 77% of the Moon is Illuminated
Nov 22
Waning Gibbous
Nov 25
Last Quarter
Dec 2
New
Dec 9
First Quarter
Dec 17
Full

Hourly Weather History & Observations

Time (PST) Temp. Windchill Dew Point Humidity Pressure Visibility Wind Dir Wind Speed Gust Speed Precip Events Conditions
12:53 AM 14.0 °F 6.5 °F -0.9 °F 52% 30.67 in 10.0 mi NW 4.6 mph - N/A   Clear
1:53 AM 15.1 °F 6.4 °F -2.0 °F 47% 30.69 in 10.0 mi WNW 5.8 mph - N/A   Clear
2:53 AM 15.1 °F 9.4 °F -4.0 °F 43% 30.70 in 10.0 mi West 3.5 mph - N/A   Clear
3:53 AM 15.1 °F - -2.9 °F 45% 30.70 in 10.0 mi Calm Calm - N/A   Clear
4:53 AM 14.0 °F 6.5 °F -2.0 °F 49% 30.72 in 10.0 mi NW 4.6 mph - N/A   Clear
5:53 AM 16.0 °F 8.8 °F -5.1 °F 39% 30.71 in 10.0 mi WNW 4.6 mph - N/A   Clear
6:53 AM 16.0 °F - -6.0 °F 38% 30.74 in 10.0 mi Calm Calm - N/A   Clear
7:53 AM 19.0 °F - -7.1 °F 31% 30.73 in 10.0 mi Calm Calm - N/A   Clear
8:53 AM 19.9 °F 14.9 °F 1.0 °F 44% 30.74 in 10.0 mi Variable 3.5 mph - N/A   Clear
9:53 AM 23.0 °F - -0.9 °F 35% 30.74 in 10.0 mi Calm Calm - N/A   Clear
10:53 AM 25.0 °F - 6.1 °F 45% 30.72 in 10.0 mi Calm Calm - N/A   Clear
11:53 AM 24.1 °F - -5.1 °F 28% 30.71 in 10.0 mi Calm Calm - N/A   Clear
12:53 PM 25.0 °F - 1.9 °F 37% 30.69 in 10.0 mi Calm Calm - N/A   Clear
1:53 PM 26.1 °F - 3.0 °F 37% 30.68 in 10.0 mi Calm Calm - N/A   Clear
2:53 PM 26.1 °F - 1.9 °F 35% 30.68 in 10.0 mi Calm Calm - N/A   Clear
3:53 PM 23.0 °F 18.4 °F 9.0 °F 55% 30.69 in 10.0 mi South 3.5 mph - N/A   Clear
4:53 PM 24.1 °F - 6.1 °F 46% 30.69 in 10.0 mi Calm Calm - N/A   Clear
5:53 PM 23.0 °F - 6.1 °F 48% 30.67 in 10.0 mi Calm Calm - N/A   Clear
6:53 PM 23.0 °F 15.8 °F 7.0 °F 50% 30.67 in 10.0 mi SSE 5.8 mph - N/A   Clear
7:53 PM 21.9 °F 14.5 °F 9.0 °F 58% 30.65 in 10.0 mi SSE 5.8 mph - N/A   Clear
8:53 PM 21.9 °F 13.4 °F 8.1 °F 55% 30.66 in 10.0 mi SSE 6.9 mph - N/A   Clear
9:53 PM 21.0 °F 12.4 °F 6.1 °F 53% 30.65 in 10.0 mi SSE 6.9 mph - N/A   Clear
10:53 PM 21.0 °F 11.4 °F 7.0 °F 55% 30.62 in 10.0 mi SSE 8.1 mph - N/A   Clear
11:53 PM 21.0 °F 12.4 °F 7.0 °F 55% 30.62 in 10.0 mi SSE 6.9 mph - N/A   Clear